Location: Aalen
(48.8330°N, 10.1000°E)
Time: 09:43:24
(UTC+02:00)

Transit 2A - Pass Details

Date: 06 August 2021
Orbit: 594 x 964 km, 66.7° (Epoch: 24 September)

Event Time Altitude Azimuth Distance (km) Brightness Sun altitude
Rises 16:30:15 0° 311° (NW) 3,314 9.6 40.6°
Reaches altitude 10° 16:33:27 10° 291° (WNW) 2,452 9.3 40.1°
Maximum altitude 16:36:55 17° 254° (WSW) 2,079 9.7 39.6°
Drops below altitude 10° 16:40:32 10° 216° (SW) 2,579 9.6 39.1°
Sets 16:44:03 0° 197° (SSW) 3,569 9.9 38.5°
